Home > Weather > Bury > Past weeks

Flag for United Kingdom Past Weather in Bury, England, United Kingdom — Yesterday and Last 2 Weeks

Now
59 °F

Drizzle. Mostly cloudy.


Feels Like: 57 °F
Forecast: 50 / 57 °F
Wind: 12 mph from West

Location: Manchester Airport

Current Time: Jun 27, 2016 at 1:27:04 AM

Latest Report: Jun 27, 2016 at 12:50 AM


Visibility: 2 mi

Pressure: 29.92 "Hg

Humidity: 94%

Dew Point: 57 °F

Location of BuryLocation

Past Weather in Bury — Graph

°F

Bury Temperature Yesterday

Maximum temperature yesterday: 63 °F (at 1:50 PM)
Minimum temperature yesterday: 54 °F (at 3:50 AM)
Average temperature yesterday: 57 °F

High & Low Weather Summary for the Past Weeks

 TemperatureHumidityPressure
High72 °F (Jun 23, 3:50 PM)100% (Jun 12, 3:20 AM)30.21 "Hg (Jun 12, 3:20 AM)
Low50 °F (Jun 19, 12:20 AM)47% (Jun 23, 3:50 PM)29.33 "Hg (Jun 14, 5:20 PM)
Average59 °F82%29.84 "Hg
* Reported Jun 12 12:20 AM — Jun 27 12:20 AM, Bury, Weather by CustomWeather, © 2016

Note: Actual official high and low records may vary slightly from our data, if they occured in-between our weather recording intervals... More about our weather records

Advertising

Bury Weather History for the Previous 24 Hours

Scroll right to see more
 ConditionsComfort  
Time TempWeatherWind HumidityBarometerVisibility
12:20 AM
Mon, Jun 27
59 °FRain showers. Mostly cloudy.12 mph94%29.92 "Hg2 mi
11:50 PM
Sun, Jun 26
59 °FRain showers. Mostly cloudy.13 mph94%29.92 "Hg3 mi
11:20 PM59 °FPartly cloudy.15 mph94%29.92 "Hg3 mi
10:50 PM57 °FRain showers. Mostly cloudy.10 mph100%29.92 "Hg3 mi
10:20 PM57 °FDrizzle. Cloudy.9 mph100%29.92 "HgN/A
9:50 PM57 °FMostly cloudy.9 mph94%29.92 "Hg6 mi
9:20 PM57 °FPartly sunny.9 mph94%29.92 "HgN/A
8:50 PM57 °FDrizzle. Fog.8 mph94%29.95 "Hg2 mi
8:20 PM57 °FDrizzle. Fog.8 mph94%29.95 "Hg3 mi
7:50 PM57 °FDrizzle. Fog.8 mph94%29.95 "Hg3 mi
7:20 PM57 °FDrizzle. Partly sunny.9 mph94%29.95 "Hg3 mi
6:50 PM57 °FScattered showers. Broken clouds.9 mph94%29.98 "HgN/A
6:20 PM57 °FLight rain. Partly sunny.9 mph88%29.98 "HgN/A
5:50 PM57 °FLight rain. Partly sunny.8 mph94%29.98 "HgN/A
5:20 PM57 °FLight rain. Partly sunny.7 mph88%29.98 "HgN/A
4:50 PM59 °FLight rain. Partly sunny.6 mph82%30.01 "HgN/A
4:20 PM57 °FLight rain. Partly sunny.6 mph88%30.01 "HgN/A
3:50 PM59 °FLight rain. Partly sunny.8 mph77%30.01 "HgN/A
3:20 PM59 °FLight rain. Passing clouds.9 mph72%30.01 "HgN/A
2:50 PM61 °FScattered clouds.10 mph68%30.01 "HgN/A
2:20 PM61 °FPartly sunny.10 mph72%30.01 "HgN/A
1:50 PM63 °FPartly sunny.7 mph68%30.01 "HgN/A
1:20 PM61 °FPartly sunny.7 mph68%30.04 "HgN/A
12:50 PM61 °FPartly sunny.9 mph68%30.04 "HgN/A
12:20 PM61 °FPartly sunny.8 mph68%30.04 "HgN/A
11:50 AM59 °FPartly sunny.7 mph72%30.04 "HgN/A
11:20 AM59 °FPartly sunny.9 mph68%30.04 "HgN/A
10:50 AM59 °FPartly sunny.10 mph68%30.04 "HgN/A
10:20 AM59 °FPartly sunny.10 mph72%30.04 "HgN/A
9:50 AM57 °FPartly sunny.10 mph77%30.04 "HgN/A
9:20 AM57 °FPartly sunny.10 mph77%30.04 "HgN/A
8:50 AM55 °FPartly sunny.13 mph82%30.04 "HgN/A
8:20 AM55 °FPartly sunny.10 mph82%30.04 "HgN/A
7:50 AM54 °FPartly sunny.10 mph88%30.04 "HgN/A
7:20 AM54 °FDrizzle. Partly sunny.10 mph94%30.04 "HgN/A
6:50 AM54 °FDrizzle. Partly sunny.12 mph94%30.04 "Hg4 mi
6:20 AM54 °FPartly sunny.10 mph94%30.04 "Hg6 mi
5:50 AM54 °FLight rain. Overcast.10 mph94%30.04 "HgN/A
5:20 AM54 °FRain. Passing clouds.8 mph94%30.04 "Hg2 mi
4:50 AM54 °FPassing clouds.9 mph94%30.04 "Hg2 mi
4:20 AM54 °FPassing clouds.9 mph94%30.04 "Hg2 mi
3:50 AM54 °FMostly cloudy.13 mph94%30.04 "Hg4 mi
3:20 AM55 °FPartly cloudy.10 mph88%30.04 "HgN/A
2:50 AM57 °FOvercast.7 mph82%30.04 "HgN/A
2:20 AM57 °FMostly cloudy.7 mph82%30.04 "HgN/A
1:50 AM57 °FMostly cloudy.7 mph88%30.04 "HgN/A
1:20 AM57 °FPartly cloudy.8 mph88%30.04 "HgN/A
Weather by CustomWeather, © 2016

See weather overviewHow to use our weather pages